Weather in Elanskiy

Russia / Sverdlovsk Oblast     56°48′44″N   62°29′31″E
temp.,
°C
wind,
m/s
gust,
m/s
humid.,
%
clouds,
%
prec.,
mm/h
press.,
hPa
HPBL,
m
13 june, sun
sun1323:00+14sse22685 0.0 102312
02:00+12sse33695 0.0 102326
05:00+11s22764 0.0 102426
08:00+18s35575 0.0 1024308
11:00+23ssw46415 0.0 10241587
14:00+25ssw56375 0.0 10232004
17:00+25ssw45425 0.0 10221888
20:00+21s346363 0.0 102268
14 june, mon
mon1423:00+16s3571100 0.0 102262
02:00+14s36725 0.0 102280
05:00+13s367258 0.0 102285
08:00+19ssw4857100 0.0 1022300
11:00+24sw475095 0.0 1021737
14:00+28sw710395 0.0 10201877
17:00+27ssw71043100 0.0 1019866
20:00+23ssw51258100 0.0 1019369
15 june, tue
tue1523:00+19ssw41364100 0.0 1018231
02:00+18sw41261100 0.0 1018228
05:00+16sw3579100 0.1 101878
08:00+21sw4867100 0.0 1018286
11:00+26wsw575099 0.0 1017843
14:00+29sw5939100 0.0 10152913
17:00+25wsw4853100 0.0 1015364
20:00+23sw366499 0.0 1014109
16 june, wed
wed1623:00+17n358680 0.4 101588
02:00+15wsw2291100 0.1 101521
05:00+16wsw228754 0.1 101531
08:00+21sw237311 0.3 1015251
11:00+26wsw345655 0.3 1015912
14:00+23ssw4664100 1.1 101496
17:00+20s6989100 4.9 1013300
20:00+21sw118496 1.0 101346
17 june, thu
thu1723:00+17sw369493 2.1 101291
02:00+16wsw358943 0.0 101272
05:00+15sw36931 0.0 1012113
08:00+21sw34750 0.0 1010216
11:00+27sw345140 0.0 1009746
14:00+29sw454052 0.0 10071593
17:00+29s584330 0.0 10041668
20:00+17ne2491100 0.6 1006131